Change the Weather History Date:

Sunday, May 26, 2013

  Actual Average Record
Temperature  
Mean Temperature 58 °F 70 °F  
Max Temperature 74 °F 80 °F 95 °F (1953)
Min Temperature 42 °F 60 °F 42 °F (2013)
Degree Days  
Heating Degree Days 7 1  
Month to date heating degree days 67 64  
Since 1 July heating degree days 2877 3225  
Cooling Degree Days 0 6  
Month to date cooling degree days 110 90  
Year to date cooling degree days 164 132  
Growing Degree Days 8 (Base 50)    
Moisture  
Dew Point 43 °F    
Average Humidity 61    
Maximum Humidity 93    
Minimum Humidity 29    
Precipitation  
Precipitation 0.00 in 0.13 in 1.79 in (1965)
Month to date precipitation 1.19 2.94  
Year to date precipitation 10.67 16.50  
Snow  
Snow 0.00 in - T in (1949)
Month to date snowfall 0.0  
Since 1 July snowfall T  
Snow Depth 0.00 in    
Sea Level Pressure  
Sea Level Pressure 30.20 in    
Wind  
Wind Speed 5 mph (WNW)    
Max Wind Speed 16 mph    
Max Gust Speed 22 mph    
Visibility 10 miles    
Events      
T = Trace of Precipitation, MM = Missing Value Source: NWS Daily Summary

Daily Weather History Graph

Daily Weather History Graph

Search for Another Location

Airport or City:

Trip Planner

Search our weather history database for the weather conditions in past years. The results will help you decide how hot, cold, wet, or windy it might be!

Date:

Astronomy

May. 26, 2013 Rise Set
Actual Time 5:51 AM EDT 8:12 PM EDT
Civil Twilight 5:21 AM EDT 8:42 PM EDT
Nautical Twilight 4:45 AM EDT 9:18 PM EDT
Astronomical Twilight 4:05 AM EDT 9:58 PM EDT
Moon 9:59 PM EDT (5/26) 7:17 AM EDT (5/26)
Length of Visible Light 15h 20m
Length of Day
14h 21m
Waning Gibbous, 97% of the Moon is Illuminated
May 26
Waning Gibbous
May 31
Last Quarter
Jun 8
New
Jun 16
First Quarter
Jun 23
Full

Hourly Weather History & Observations

Time (EDT) Temp. Windchill Dew Point Humidity Pressure Visibility Wind Dir Wind Speed Gust Speed Precip Events Conditions
12:54 AM 51.1 °F - 45.0 °F 80% 30.18 in 10.0 mi NNW 3.5 mph - N/A   Clear
1:54 AM 48.9 °F - 45.0 °F 86% 30.17 in 10.0 mi NNW 3.5 mph - N/A   Clear
2:54 AM 48.0 °F - 45.0 °F 89% 30.17 in 10.0 mi Calm Calm - N/A   Clear
3:54 AM 44.1 °F 41.5 °F 42.1 °F 93% 30.18 in 10.0 mi SW 4.6 mph - N/A   Clear
4:54 AM 46.9 °F - 44.1 °F 90% 30.19 in 10.0 mi Calm Calm - N/A   Clear
5:54 AM 45.0 °F 41.2 °F 43.0 °F 93% 30.20 in 10.0 mi West 6.9 mph - N/A   Clear
6:54 AM 55.9 °F - 45.0 °F 67% 30.22 in 10.0 mi NNW 5.8 mph - N/A   Clear
7:54 AM 57.9 °F - 46.0 °F 65% 30.24 in 10.0 mi NW 5.8 mph - N/A   Clear
8:54 AM 61.0 °F - 41.0 °F 48% 30.25 in 10.0 mi NNW 9.2 mph - N/A   Clear
9:54 AM 64.9 °F - 41.0 °F 42% 30.25 in 10.0 mi North 9.2 mph - N/A   Clear
10:54 AM 66.9 °F - 39.0 °F 36% 30.25 in 10.0 mi NNW 10.4 mph - N/A   Clear
11:54 AM 68.0 °F - 37.9 °F 33% 30.24 in 10.0 mi WNW 4.6 mph - N/A   Clear
12:54 PM 69.1 °F - 37.9 °F 32% 30.21 in 10.0 mi West 4.6 mph - N/A   Clear
1:54 PM 72.0 °F - 39.9 °F 31% 30.20 in 10.0 mi West 13.8 mph 21.9 mph N/A   Clear
2:54 PM 73.0 °F - 39.0 °F 29% 30.18 in 10.0 mi WNW 11.5 mph - N/A   Clear
3:54 PM 72.0 °F - 37.0 °F 28% 30.17 in 10.0 mi West 6.9 mph - N/A   Clear
4:54 PM 73.0 °F - 39.0 °F 29% 30.17 in 10.0 mi WNW 6.9 mph - N/A   Clear
5:54 PM 72.0 °F - 39.0 °F 30% 30.17 in 10.0 mi West 9.2 mph - N/A   Clear
6:54 PM 70.0 °F - 42.1 °F 36% 30.17 in 10.0 mi West 6.9 mph - N/A   Clear
7:54 PM 66.9 °F - 42.1 °F 40% 30.19 in 10.0 mi West 3.5 mph - N/A   Clear
8:54 PM 62.1 °F - 46.0 °F 56% 30.20 in 10.0 mi Calm Calm - N/A   Clear
9:54 PM 60.1 °F - 51.1 °F 72% 30.22 in 10.0 mi Calm Calm - N/A   Clear
10:54 PM 57.0 °F - 51.1 °F 81% 30.23 in 10.0 mi Calm Calm - N/A   Clear
11:54 PM 57.9 °F - 51.1 °F 78% 30.23 in 10.0 mi Calm Calm - N/A   Clear